Miscellaneous Local Product
Issued by NWS Hastings, NE

Home | Current Version | Previous Version | Text Only | Print | Product List | Glossary On
Versions: 1 2 3 4 5 6 7 8 9 10 11 12 13 14 15 16 17 18 19 20 21 22 23 24 25 26 27 28 29 30 31 32 33 34 35 36 37 38 39 40 41 42 43 44 45 46 47 48 49 50
000
AXUS43 KGID 260002
MISGRI

GID CWA HOURLY WEATHER ROUNDUP
NATIONAL WEATHER SERVICE HASTINGS NE
700 PM CDT SAT MAR 25 2017

NOTE: "FAIR" INDICATES FEW OR NO CLOUDS BELOW 12,000 FEET WITH NO
SIGNIFICANT WEATHER AND/OR OBSTRUCTIONS TO VISIBILITY.

...SOUTH CENTRAL NEBRASKA...

CITY           SKY/WX    TMP DP  RH WIND       PRES   REMARKS
GRAND ISLAND   CLOUDY    40  40 100 NE8       29.94S FOG     WCI  34
HASTINGS       CLOUDY    41  38  89 NE10      29.93F
KEARNEY        CLOUDY    43  37  81 NE9       29.93R
ORD            CLOUDY    42  37  82 E8        29.92S
YORK           CLOUDY    39  39 100 NE13      29.94S FOG     WCI  32
AURORA         CLOUDY    39  38  99 N9        29.94S FOG     WCI  33
LEXINGTON      CLOUDY    47  41  79 E10       29.91S
HOLDREGE       CLOUDY    42  40  91 N6        29.92S
HEBRON         CLOUDY    40  38  94 N8        29.93S FOG     WCI  35

...NEBRASKA PANHANDLE...

CITY           SKY/WX    TMP DP  RH WIND       PRES   REMARKS
CHADRON        MOSUNNY   65  32  29 E5        29.79S
ALLIANCE       CLOUDY    60  31  33 SE10      29.83S
SCOTTSBLUFF    CLOUDY    65  31  28 SE10      29.80F
SIDNEY         CLOUDY    57  32  38 S8        29.87S

...WESTERN AND NORTH CENTRAL NEBRASKA...

CITY           SKY/WX    TMP DP  RH WIND       PRES   REMARKS
VALENTINE      SUNNY     58  27  30 SE12      29.86F
AINSWORTH      CLEAR     53  39  59 E9        29.90R
ONEILL         CLOUDY    40  38  95 E8        29.95S FOG     WCI  34
BROKEN BOW     PTCLDY    47  41  80 E9        29.90S
IMPERIAL       CLOUDY    58  28  32 S5        29.88S
NORTH PLATTE   SUNNY     60  28  29 SE8       29.87R
MCCOOK         SUNNY     57  43  59 E13       29.87R

...EASTERN NEBRASKA...

CITY           SKY/WX    TMP DP  RH WIND       PRES   REMARKS
NORFOLK        CLOUDY    39  37  92 NE10      29.95S FOG     WCI  32
SO SIOUX CITY  CLOUDY    41  39  93 NE8       29.97S
TEKAMAH        CLOUDY    42  39  89 N13       29.95R
COLUMBUS       CLOUDY    39  36  87 N8        29.96S WCI  34
ALBION         CLOUDY    41  38  89 NE6       29.95S FOG
OMAHA EPPLEY   CLOUDY    43  37  79 N10       29.94R
OFFUTT AFB     LGT RAIN  41  40  93 N7        29.93R FOG
MILLARD        CLOUDY    43  41  91 N5        29.94R
LINCOLN        CLOUDY    41  39  93 N10       29.95R
NEBRASKA CITY  CLOUDY    41  41 100 NE9       29.91S FOG
BEATRICE       CLOUDY    41  40  97 N9        29.93R FOG
FALLS CITY     CLOUDY    43  41  93 N6        29.90R

...NORTHERN KANSAS...

CITY           SKY/WX    TMP DP  RH WIND       PRES   REMARKS
GOODLAND       CLOUDY    57  27  31 CALM      29.88F
HILL CITY      SUNNY     52  42  69 E10       29.91S
NORTON         CLEAR     48  37  66 NE9       29.90S
PHILLIPSBURG   CLOUDY    46  39  76 N3        29.93S
HAYS             N/A     49  40  71 NE7       29.92R
RUSSELL        PTCLDY    48  38  68 N7        29.90S
CONCORDIA      CLOUDY    42  40  92 N9        29.93R
SALINA         CLOUDY    46  40  79 N10       29.93R
TOPEKA         CLOUDY    47  44  90 N10       29.89R



USA.gov is the U.S. government's official web portal to all federal, state and local government web resources and services.